SCP
-0 -0 -0 -0 -0 0 0 0 0 0 0 0 0 0 0 0 0 0 0 0 0 0 0 0 0 0 0 0 0 0 0 0 0 0 0 0 0 0
0 0 -0 -0 -0 0 0 0 0 0 0 0 0 0 0 0 0 0 0 0 0 0 0 0 0 0 0 0 0 0 0 0 0 0 0 0 0 0
0 0 0 0 0 0 0 0 0 0 0 0 0 0 0 0 0 0 0 0 0 0 0 0 0 0 0 0 0 0 0 0 0 0 0 0 0 0
0 0 0 0 0 0 0 0 0 0 0 0 0 0 0 0 0 0 0 0 0 0 0 0 0 0 0 0 0 0 0 0 0 0 0 0 0 0
0 0 0 0 0 0 0 0 0 0 0 0 0 0 0 0 0 0 0 0 0 0 0 0 0 0 0 0 0 0 0 0 0 0 0 0 0 0
0 -0 0 0 0 0 0 0 0 0 0 0 0 0 0 0 0 0 0 0 0 0 0 0 0 0 0 0 0 0 0 0 0 0 0 0 0 0
-0 0 -0 -0 -0 0 1 0 0 0 0 0 0 0 0 1 1 0 0 0 0 0 0 0 0 0 0 0 0 0 0 0 0 0 0 0 0 0
-1 -0 -0 -0 -0 0 0 0 0 0 0 0 0 0 0 0 0 1 0 0 0 0 0 0 0 0 0 0 0 0 0 0 0 0 0 0 0 0
-2 -1 -1 -1 -1 -0 0 0 0 0 0 1 0 0 0 0 0 0 0 0 0 0 0 0 0 0 0 0 0 0 0 0 0 0 0 0 0 0
-1 -1 -0 -1 -0 -0 0 0 0 0 0 0 0 0 0 0 0 0 0 0 0 0 0 0 0 0 0 0 0 0 0 0 0 0 0 0 0 0
0 1 1 0 1 1 1 1 1 1 1 0 0 0 0 2 2 1 1 0 0 0 0 0 0 0 0 0 0 0 0 0 0 0 0 0 0 0
2 1 1 1 3 2 2 4 3 3 2 1 0 0 0 0 2 1 0 0 0 0 0 0 0 0 0 0 0 0 0 0 0 0 0 0 0 0
3 3 3 3 1 2 1 6 4 6 3 3 2 1 0 0 0 0 0 1 0 0 0 0 0 0 0 0 0 0 0 0 0 0 0 0 0 0
4 4 4 4 3 1 0 2 4 5 8 5 4 2 1 0 0 1 1 0 0 0 0 0 0 0 0 0 0 0 0 0 0 0 0 0 0 0
4 4 4 5 3 0 0 0 0 5 11 10 7 6 2 1 0 0 0 0 0 0 0 0 0 0 0 0 0 0 0 0 0 0 0 0 0 0
1 3 4 4 5 4 0 0 0 7 13 16 13 9 4 0 0 0 0 0 0 0 0 0 0 0 0 0 0 0 0 0 0 0 0 0 0 0
1 2 3 5 6 9 4 3 0 1 7 10 15 14 5 0 0 0 0 0 0 0 0 0 0 0 0 0 0 0 0 0 0 0 0 0 0 0
0 2 3 6 8 10 11 12 7 2 3 7 8 11 5 0 0 0 0 0 0 0 0 0 0 0 0 0 0 0 0 0 0 0 0 0 0 0
0 1 2 3 6 8 8 8 9 7 4 4 6 7 4 2 0 0 0 0 0 0 0 0 0 0 0 0 0 0 0 0 0 0 0 0 0 0
0 0 0 0 0 0 0 0 0 2 3 3 5 5 5 1 0 0 0 0 0 0 0 0 0 0 0 0 0 0 0 0 0 0 0 0 0 0
0 0 0 0 0 0 0 0 0 0 0 0 0 1 4 0 0 0 0 0 0 0 0 0 0 0 0 0 0 0 0 0 0 0 0 0 0 0
0 0 0 0 0 0 0 0 0 0 -0 -0 0 0 0 0 0 0 0 0 0 0 0 0 0 0 0 0 0 0 0 0 -0 0 0 0 0 0
0 0 0 0 0 0 0 0 0 0 0 -0 0 0 0 -0 0 -0 0 0 0 0 0 0 0 0 0 0 0 0 0 0 0 0 0 0 0 0
Wind_Speed_500mb
37 42 41 40 35 25 20 27 16 10 30 33 24 26 28 24 21 21 20 21 20 15 12 11 12 15 17 22 27 30 30 27 25 25 24 26 27 29
37 35 40 38 36 30 26 24 27 25 22 15 34 29 35 32 28 24 25 20 15 16 16 14 15 18 20 25 31 33 32 31 30 28 27 27 30 33
45 41 38 40 42 39 36 35 33 30 31 25 20 34 36 36 28 28 31 28 25 17 11 21 21 22 25 25 25 30 32 29 29 29 30 31 31 33
57 54 49 42 47 50 48 48 44 41 36 32 36 34 45 35 29 25 25 30 34 28 28 26 27 27 25 25 23 21 20 20 19 23 28 29 32 39
63 63 60 57 56 56 60 57 53 46 46 42 41 40 39 38 37 34 32 25 22 24 35 38 38 30 29 23 21 26 27 29 27 25 30 33 37 42
67 71 69 70 67 62 62 66 64 60 58 56 53 55 54 48 44 44 41 37 25 30 33 34 35 34 34 24 22 25 31 40 35 32 33 36 39 43
65 72 79 80 79 74 69 68 71 76 72 69 67 64 61 66 61 56 54 47 39 35 34 35 33 33 31 30 28 29 37 42 39 36 41 44 45 43
78 76 79 84 85 84 81 74 70 76 85 83 80 76 69 61 63 62 59 59 57 45 41 41 40 39 35 37 33 31 32 30 32 34 37 42 37 33
86 84 83 85 85 88 90 87 80 74 80 85 91 86 76 65 59 65 65 62 64 51 44 38 44 46 41 41 42 40 34 36 34 28 32 28 19 17
98 94 93 88 87 87 87 91 92 90 85 83 90 91 85 72 63 59 61 60 59 55 51 47 43 45 38 38 39 37 38 34 28 25 25 21 19 18
104 104 104 103 99 92 91 92 91 97 90 87 86 85 86 81 75 66 72 68 66 69 59 47 50 45 45 42 43 43 36 31 27 27 26 25 23 24
103 108 112 114 109 105 101 100 103 105 96 91 94 93 93 91 91 89 78 80 83 74 65 51 50 44 47 49 50 43 35 29 29 24 25 27 30 26
98 106 110 110 107 106 102 105 119 108 107 103 100 98 105 104 105 101 99 97 93 90 72 58 50 53 55 37 51 43 35 30 28 27 30 29 26 24
88 93 99 97 98 94 94 107 110 112 115 116 114 115 114 117 118 112 107 98 87 73 61 54 54 58 61 64 51 46 40 35 31 33 33 28 24 27
70 74 76 84 84 94 90 93 96 112 122 115 119 120 122 118 107 110 115 104 92 80 71 60 61 62 59 65 59 51 44 47 45 41 40 30 30 32
65 67 68 71 77 86 92 99 95 109 122 130 128 122 111 110 113 109 114 117 104 94 80 67 72 77 71 63 54 52 47 50 45 44 37 32 32 35
45 56 70 83 88 92 101 101 99 113 113 126 118 111 105 119 119 112 108 109 111 106 91 86 79 75 63 56 50 46 46 48 41 33 31 29 34 39
64 70 70 70 73 77 84 94 103 104 106 118 117 120 113 116 116 118 115 112 111 106 86 80 80 66 59 54 48 39 41 36 30 31 31 37 40 31
80 83 75 61 59 64 72 85 92 103 115 113 117 110 118 120 128 131 126 125 112 85 79 87 74 76 70 62 41 34 35 33 32 34 38 41 34 22
41 42 44 49 56 62 66 80 90 84 89 111 119 107 118 118 130 125 137 124 125 105 85 85 76 80 74 54 41 38 36 34 46 40 35 27 19 21
25 26 25 23 19 14 41 58 60 72 80 96 116 115 122 141 153 141 111 115 90 85 92 85 79 65 46 35 42 40 37 31 33 32 25 23 21 24
25 28 27 31 37 46 51 53 58 52 76 50 63 54 27 21 13 38 80 57 82 85 67 70 60 57 53 53 48 41 40 32 30 29 26 22 27 29
29 30 31 31 40 44 44 46 37 40 38 41 27 35 27 25 34 19 46 77 73 67 61 62 59 50 47 46 38 34 35 33 38 33 29 28 27 23
Wind_Direction_500mb
215 213 213 210 210 217 224 208 221 204 218 230 232 226 232 248 259 282 286 293 285 279 283 272 277 290 306 315 318 320 315 308 301 296 298 301 307 309
223 218 217 211 208 210 226 218 225 232 238 236 233 234 230 239 250 261 262 269 276 267 270 270 273 278 301 310 313 313 309 309 308 303 303 305 309 313
239 235 227 222 217 217 219 234 228 227 235 225 230 225 230 236 247 253 259 260 266 258 252 254 266 280 292 309 319 315 308 312 309 308 307 310 316 318
236 241 240 232 224 223 229 232 238 236 233 230 227 221 226 241 248 260 272 271 269 247 248 257 261 266 283 301 328 322 318 317 315 317 315 312 313 315
241 241 246 245 242 235 232 236 236 239 238 238 234 238 236 238 243 248 258 259 256 254 254 257 261 266 277 287 296 299 293 299 298 297 295 295 306 311
245 247 246 247 248 247 242 237 237 238 241 241 238 236 242 243 245 249 250 250 244 229 238 250 249 252 251 268 277 285 287 288 289 291 295 296 305 305
248 247 251 253 256 255 249 244 237 237 238 242 244 242 236 236 237 243 244 248 250 246 244 247 253 256 255 274 272 279 280 280 283 294 302 305 305 299
253 253 252 254 258 261 260 255 247 244 242 242 243 243 241 236 238 241 243 242 237 241 244 253 248 246 253 262 266 275 266 270 273 291 301 307 303 297
258 257 256 255 257 259 262 262 258 252 249 251 249 248 248 246 238 236 238 244 244 239 244 255 246 249 253 261 266 269 274 278 289 298 308 317 324 323
261 262 261 261 259 259 260 260 260 258 251 249 250 253 255 256 248 241 239 243 237 235 238 257 256 252 256 255 259 265 277 280 288 293 312 323 327 337
259 261 262 263 263 262 261 260 262 262 262 258 254 254 248 248 248 238 233 227 225 230 236 251 257 248 239 246 252 264 273 276 275 297 309 317 315 311
257 261 262 262 263 263 261 262 261 262 261 260 253 249 248 241 234 237 239 235 237 239 238 235 244 234 234 242 245 255 263 258 271 278 290 296 300 291
259 260 260 261 260 258 257 256 263 267 267 263 260 255 249 247 243 236 233 236 239 239 238 228 229 233 236 230 234 243 249 255 262 269 268 278 284 284
263 265 266 266 264 263 260 260 259 259 256 258 256 253 248 246 243 240 242 241 238 239 234 230 236 230 231 231 227 242 254 250 250 253 263 271 270 268
265 268 270 269 269 265 261 266 261 253 253 248 247 247 248 250 249 244 238 235 232 228 221 225 236 237 234 235 244 250 252 244 239 247 258 253 265 275
270 274 276 276 272 269 268 261 259 256 252 248 249 249 246 243 241 243 236 231 225 223 221 221 239 238 240 237 242 250 248 237 238 242 250 243 262 274
274 273 268 267 268 269 267 265 263 261 260 256 247 244 235 240 241 241 234 227 218 219 210 216 220 236 237 239 238 241 242 234 234 239 229 249 261 283
282 286 285 283 280 277 276 275 276 275 273 269 262 250 239 232 228 233 228 220 214 209 208 219 222 217 214 219 228 234 225 221 214 211 232 250 271 273
280 282 285 289 292 288 285 283 279 276 279 276 273 258 250 232 228 220 221 208 200 195 220 219 221 213 208 214 221 217 205 210 212 219 235 259 268 283
294 295 294 292 288 284 287 288 285 283 281 277 257 260 253 242 223 212 210 202 195 196 200 213 217 211 213 217 219 221 217 217 220 227 245 253 268 286
334 341 350 359 353 10 345 343 353 330 300 282 275 276 256 231 222 216 203 191 188 200 190 197 209 214 220 208 208 225 226 225 220 237 238 251 260 274
354 346 333 323 320 317 325 320 326 355 7 346 287 278 325 57 87 172 156 173 192 195 192 195 200 203 201 202 210 233 232 233 227 229 238 251 257 271
330 332 323 323 322 318 323 324 322 319 324 344 30 35 61 76 79 167 192 189 185 188 186 188 195 203 210 219 231 234 232 244 226 225 237 239 244 266
Wind_Speed_850mb
37 42 41 40 35 25 20 27 16 10 30 33 24 26 28 24 21 21 20 21 20 15 12 11 12 15 17 22 27 30 30 27 25 25 24 26 27 29
37 35 40 38 36 30 26 24 27 25 22 15 34 29 35 32 28 24 25 20 15 16 16 14 15 18 20 25 31 33 32 31 30 28 27 27 30 33
45 41 38 40 42 39 36 35 33 30 31 25 20 34 36 36 28 28 31 28 25 17 11 21 21 22 25 25 25 30 32 29 29 29 30 31 31 33
57 54 49 42 47 50 48 48 44 41 36 32 36 34 45 35 29 25 25 30 34 28 28 26 27 27 25 25 23 21 20 20 19 23 28 29 32 39
63 63 60 57 56 56 60 57 53 46 46 42 41 40 39 38 37 34 32 25 22 24 35 38 38 30 29 23 21 26 27 29 27 25 30 33 37 42
67 71 69 70 67 62 62 66 64 60 58 56 53 55 54 48 44 44 41 37 25 30 33 34 35 34 34 24 22 25 31 40 35 32 33 36 39 43
65 72 79 80 79 74 69 68 71 76 72 69 67 64 61 66 61 56 54 47 39 35 34 35 33 33 31 30 28 29 37 42 39 36 41 44 45 43
78 76 79 84 85 84 81 74 70 76 85 83 80 76 69 61 63 62 59 59 57 45 41 41 40 39 35 37 33 31 32 30 32 34 37 42 37 33
86 84 83 85 85 88 90 87 80 74 80 85 91 86 76 65 59 65 65 62 64 51 44 38 44 46 41 41 42 40 34 36 34 28 32 28 19 17
98 94 93 88 87 87 87 91 92 90 85 83 90 91 85 72 63 59 61 60 59 55 51 47 43 45 38 38 39 37 38 34 28 25 25 21 19 18
104 104 104 103 99 92 91 92 91 97 90 87 86 85 86 81 75 66 72 68 66 69 59 47 50 45 45 42 43 43 36 31 27 27 26 25 23 24
103 108 112 114 109 105 101 100 103 105 96 91 94 93 93 91 91 89 78 80 83 74 65 51 50 44 47 49 50 43 35 29 29 24 25 27 30 26
98 106 110 110 107 106 102 105 119 108 107 103 100 98 105 104 105 101 99 97 93 90 72 58 50 53 55 37 51 43 35 30 28 27 30 29 26 24
88 93 99 97 98 94 94 107 110 112 115 116 114 115 114 117 118 112 107 98 87 73 61 54 54 58 61 64 51 46 40 35 31 33 33 28 24 27
70 74 76 84 84 94 90 93 96 112 122 115 119 120 122 118 107 110 115 104 92 80 71 60 61 62 59 65 59 51 44 47 45 41 40 30 30 32
65 67 68 71 77 86 92 99 95 109 122 130 128 122 111 110 113 109 114 117 104 94 80 67 72 77 71 63 54 52 47 50 45 44 37 32 32 35
45 56 70 83 88 92 101 101 99 113 113 126 118 111 105 119 119 112 108 109 111 106 91 86 79 75 63 56 50 46 46 48 41 33 31 29 34 39
64 70 70 70 73 77 84 94 103 104 106 118 117 120 113 116 116 118 115 112 111 106 86 80 80 66 59 54 48 39 41 36 30 31 31 37 40 31
80 83 75 61 59 64 72 85 92 103 115 113 117 110 118 120 128 131 126 125 112 85 79 87 74 76 70 62 41 34 35 33 32 34 38 41 34 22
41 42 44 49 56 62 66 80 90 84 89 111 119 107 118 118 130 125 137 124 125 105 85 85 76 80 74 54 41 38 36 34 46 40 35 27 19 21
25 26 25 23 19 14 41 58 60 72 80 96 116 115 122 141 153 141 111 115 90 85 92 85 79 65 46 35 42 40 37 31 33 32 25 23 21 24
25 28 27 31 37 46 51 53 58 52 76 50 63 54 27 21 13 38 80 57 82 85 67 70 60 57 53 53 48 41 40 32 30 29 26 22 27 29
29 30 31 31 40 44 44 46 37 40 38 41 27 35 27 25 34 19 46 77 73 67 61 62 59 50 47 46 38 34 35 33 38 33 29 28 27 23
Wind_Direction_850mb
215 213 213 210 210 217 224 208 221 204 218 230 232 226 232 248 259 282 286 293 285 279 283 272 277 290 306 315 318 320 315 308 301 296 298 301 307 309
223 218 217 211 208 210 226 218 225 232 238 236 233 234 230 239 250 261 262 269 276 267 270 270 273 278 301 310 313 313 309 309 308 303 303 305 309 313
239 235 227 222 217 217 219 234 228 227 235 225 230 225 230 236 247 253 259 260 266 258 252 254 266 280 292 309 319 315 308 312 309 308 307 310 316 318
236 241 240 232 224 223 229 232 238 236 233 230 227 221 226 241 248 260 272 271 269 247 248 257 261 266 283 301 328 322 318 317 315 317 315 312 313 315
241 241 246 245 242 235 232 236 236 239 238 238 234 238 236 238 243 248 258 259 256 254 254 257 261 266 277 287 296 299 293 299 298 297 295 295 306 311
245 247 246 247 248 247 242 237 237 238 241 241 238 236 242 243 245 249 250 250 244 229 238 250 249 252 251 268 277 285 287 288 289 291 295 296 305 305
248 247 251 253 256 255 249 244 237 237 238 242 244 242 236 236 237 243 244 248 250 246 244 247 253 256 255 274 272 279 280 280 283 294 302 305 305 299
253 253 252 254 258 261 260 255 247 244 242 242 243 243 241 236 238 241 243 242 237 241 244 253 248 246 253 262 266 275 266 270 273 291 301 307 303 297
258 257 256 255 257 259 262 262 258 252 249 251 249 248 248 246 238 236 238 244 244 239 244 255 246 249 253 261 266 269 274 278 289 298 308 317 324 323
261 262 261 261 259 259 260 260 260 258 251 249 250 253 255 256 248 241 239 243 237 235 238 257 256 252 256 255 259 265 277 280 288 293 312 323 327 337
259 261 262 263 263 262 261 260 262 262 262 258 254 254 248 248 248 238 233 227 225 230 236 251 257 248 239 246 252 264 273 276 275 297 309 317 315 311
257 261 262 262 263 263 261 262 261 262 261 260 253 249 248 241 234 237 239 235 237 239 238 235 244 234 234 242 245 255 263 258 271 278 290 296 300 291
259 260 260 261 260 258 257 256 263 267 267 263 260 255 249 247 243 236 233 236 239 239 238 228 229 233 236 230 234 243 249 255 262 269 268 278 284 284
263 265 266 266 264 263 260 260 259 259 256 258 256 253 248 246 243 240 242 241 238 239 234 230 236 230 231 231 227 242 254 250 250 253 263 271 270 268
265 268 270 269 269 265 261 266 261 253 253 248 247 247 248 250 249 244 238 235 232 228 221 225 236 237 234 235 244 250 252 244 239 247 258 253 265 275
270 274 276 276 272 269 268 261 259 256 252 248 249 249 246 243 241 243 236 231 225 223 221 221 239 238 240 237 242 250 248 237 238 242 250 243 262 274
274 273 268 267 268 269 267 265 263 261 260 256 247 244 235 240 241 241 234 227 218 219 210 216 220 236 237 239 238 241 242 234 234 239 229 249 261 283
282 286 285 283 280 277 276 275 276 275 273 269 262 250 239 232 228 233 228 220 214 209 208 219 222 217 214 219 228 234 225 221 214 211 232 250 271 273
280 282 285 289 292 288 285 283 279 276 279 276 273 258 250 232 228 220 221 208 200 195 220 219 221 213 208 214 221 217 205 210 212 219 235 259 268 283
294 295 294 292 288 284 287 288 285 283 281 277 257 260 253 242 223 212 210 202 195 196 200 213 217 211 213 217 219 221 217 217 220 227 245 253 268 286
334 341 350 359 353 10 345 343 353 330 300 282 275 276 256 231 222 216 203 191 188 200 190 197 209 214 220 208 208 225 226 225 220 237 238 251 260 274
354 346 333 323 320 317 325 320 326 355 7 346 287 278 325 57 87 172 156 173 192 195 192 195 200 203 201 202 210 233 232 233 227 229 238 251 257 271
330 332 323 323 322 318 323 324 322 319 324 344 30 35 61 76 79 167 192 189 185 188 186 188 195 203 210 219 231 234 232 244 226 225 237 239 244 266